TimeEST,TemperatureF,Dew PointF,Humidity,Sea Level PressureIn,VisibilityMPH,Wind Direction,Wind SpeedMPH,Gust SpeedMPH,PrecipitationIn,Events,Conditions,WindDirDegrees,DateUTC
12:53 AM,64.0,57.9,80,30.30,10.0,ENE,5.8,-,N/A,,Clear,70,2013-01-28 05:53:00
1:53 AM,64.0,59.0,84,30.30,10.0,ENE,4.6,-,N/A,,Partly Cloudy,70,2013-01-28 06:53:00
2:53 AM,64.0,60.1,87,30.29,9.0,ENE,5.8,-,N/A,,Mostly Cloudy,70,2013-01-28 07:53:00
3:53 AM,63.0,60.1,90,30.29,9.0,ENE,4.6,-,N/A,,Scattered Clouds,70,2013-01-28 08:53:00
4:53 AM,64.0,61.0,90,30.29,9.0,ENE,4.6,-,N/A,,Mostly Cloudy,70,2013-01-28 09:53:00
5:53 AM,64.0,60.1,87,30.30,9.0,ENE,3.5,-,N/A,,Mostly Cloudy,70,2013-01-28 10:53:00
6:53 AM,63.0,60.1,90,30.31,8.0,ENE,4.6,-,N/A,,Mostly Cloudy,70,2013-01-28 11:53:00
7:53 AM,64.0,61.0,90,30.32,6.0,ENE,4.6,-,N/A,,Mostly Cloudy,70,2013-01-28 12:53:00
8:53 AM,68.0,63.0,84,30.33,8.0,Variable,4.6,-,N/A,,Scattered Clouds,0,2013-01-28 13:53:00
9:53 AM,70.0,62.1,76,30.34,10.0,Variable,6.9,-,N/A,,Mostly Cloudy,0,2013-01-28 14:53:00
10:53 AM,73.0,61.0,66,30.34,10.0,ESE,9.2,16.1,N/A,,Mostly Cloudy,120,2013-01-28 15:53:00
11:53 AM,75.9,60.1,58,30.32,10.0,SE,8.1,-,N/A,,Mostly Cloudy,140,2013-01-28 16:53:00
12:53 PM,78.1,60.1,54,30.30,10.0,SSE,6.9,-,N/A,,Mostly Cloudy,150,2013-01-28 17:53:00
1:53 PM,80.1,60.1,50,30.26,10.0,Variable,4.6,-,N/A,,Mostly Cloudy,0,2013-01-28 18:53:00
2:53 PM,81.0,57.0,44,30.24,10.0,SSE,5.8,-,N/A,,Scattered Clouds,150,2013-01-28 19:53:00
3:53 PM,81.0,57.0,44,30.22,10.0,East,5.8,-,N/A,,Mostly Cloudy,90,2013-01-28 20:53:00
4:53 PM,80.1,55.0,42,30.22,10.0,Variable,4.6,-,N/A,,Scattered Clouds,0,2013-01-28 21:53:00
5:53 PM,79.0,57.9,48,30.24,10.0,NNE,3.5,-,N/A,,Mostly Cloudy,30,2013-01-28 22:53:00
6:53 PM,75.9,61.0,60,30.24,10.0,ENE,5.8,-,N/A,,Mostly Cloudy,70,2013-01-28 23:53:00
7:53 PM,75.0,62.1,64,30.26,10.0,Variable,5.8,-,N/A,,Overcast,0,2013-01-29 00:53:00
8:53 PM,73.0,62.1,68,30.27,10.0,East,6.9,-,N/A,,Scattered Clouds,80,2013-01-29 01:53:00
9:53 PM,71.1,63.0,75,30.27,10.0,Variable,3.5,-,N/A,,Partly Cloudy,0,2013-01-29 02:53:00
10:53 PM,70.0,63.0,78,30.27,10.0,East,5.8,-,N/A,,Partly Cloudy,90,2013-01-29 03:53:00
11:53 PM,69.1,63.0,81,30.26,10.0,East,3.5,-,N/A,,Partly Cloudy,100,2013-01-29 04:53:00